Location: *
(51.1248°S, 108.4023°W)
Time: 21:00:52
(UTC+00:00)

Cosmos 2278 Rocket - Pass Details

Date: 24 October 2021
Orbit: 841 x 845 km, 71.0° (Epoch: 30 November)

Event Time Altitude Azimuth Distance (km) Brightness Sun altitude
Exits shadow 06:32:26 58° 81° (E) 989 2.4 -26.8°
Drops below altitude 10° 06:37:46 10° 144° (SE) 2,497 5.2 -26.9°
Sets 06:40:16 0° 148° (SSE) 3,439 6.1 -26.9°
